This is the latest recevied weather packets stored in our database for station/object N4HAC. If no packets are shown the sender has not sent any weather packets the latest 1 day(s).
| Time | Temp. | Humidity | Pressure | Rain* | Wind** | Luminosity | Snow |
|---|---|---|---|---|---|---|---|
| 1778107267 | 20° C | 87% | 1003.1 hPa | 0 mm | - | 14 W/m² | - |
| 1778106963 | 20° C | 86% | 1002.7 hPa | 0 mm | - | 12 W/m² | - |
| 1778105144 | 20.56° C | 85% | 1002.8 hPa | 0 mm | - | 84 W/m² | - |
| 1778103325 | 20° C | 85% | 1002.6 hPa | 0 mm | - | 56 W/m² | - |
| 1778102413 | 20° C | 84% | 1002.7 hPa | 0 mm | - | 106 W/m² | - |
| 1778101807 | 20.56° C | 84% | 1002.7 hPa | 0 mm | - | 193 W/m² | - |
| 1778100896 | 20° C | 85% | 1002.5 hPa | 0 mm | - | 109 W/m² | - |
| 1778100592 | 20° C | 85% | 1002.3 hPa | 0 mm | - | 111 W/m² | - |
| 1778097259 | 20° C | 85% | 1002.7 hPa | 0 mm | - | 246 W/m² | - |
| 1778094530 | 19.44° C | 86% | 1002.6 hPa | 0 mm | - | 198 W/m² | - |
| 1778093317 | 20° C | 85% | 1003 hPa | 0 mm | - | 241 W/m² | - |
| 1778092712 | 19.44° C | 85% | 1002.9 hPa | 0 mm | - | 460 W/m² | - |
| 1778090894 | 19.44° C | 86% | 1003.4 hPa | 0 mm | - | 205 W/m² | - |
| 1778089075 | 18.89° C | 87% | 1003.1 hPa | 0 mm | - | 260 W/m² | - |
| 1778088165 | 18.89° C | 88% | 1003.2 hPa | 0 mm | - | 284 W/m² | - |
| 1778087863 | 18.89° C | 89% | 1003.2 hPa | 0 mm | - | 138 W/m² | - |
| 1778086349 | 18.33° C | 89% | 1003.6 hPa | 0 mm | - | 312 W/m² | - |
| 1778085743 | 17.78° C | 89% | 1003.3 hPa | 0 mm | - | 275 W/m² | - |
| 1778083015 | 17.22° C | 93% | 1003.7 hPa | 0 mm | - | 299 W/m² | - |
| 1778082712 | 16.67° C | 94% | 1003.8 hPa | 0 mm | - | 334 W/m² | - |
| 1778081574 | 16.11° C | 97% | 1003.6 hPa | 0 mm | - | 149 W/m² | - |
| 1778080060 | 15.56° C | 99% | 1003.7 hPa | 0 mm | - | 114 W/m² | - |
| 1778078848 | 15.56° C | 99% | 1004.1 hPa | 0 mm | - | 236 W/m² | - |
| 1778078545 | 15.56° C | 99% | 1004.3 hPa | 0.51 mm | - | 184 W/m² | - |
| 1778077940 | 15° C | 99% | 1004.1 hPa | 0 mm | - | 73 W/m² | - |
* Rain latest hour (hover to see other rain measurements)
** Current wind speed in m/s (hover to see current wind gust speed)